Home > Weather > London > Past weeks

Flag for United Kingdom Weather for the Past 2 Weeks in London, England, United Kingdom

Now
68 °F

Sunny.


Feels Like: 68 °F
Forecast: 59 / 74 °F
Wind: 9 mph from East

Location: Northolt

Current Time: May 6, 2016 at 8:46:41 PM

Latest Report: May 6, 2016 at 7:50 PM


Visibility: 10 mi

Pressure: 29.77 "Hg

Humidity: 43%

Dew Point: 45 °F

Location of LondonLocation

Historic Weather in London — Graph

°F

London Temperature Yesterday

Maximum temperature yesterday: 70 °F (at 2:50 PM)
Minimum temperature yesterday: 37 °F (at 4:50 AM)
Average temperature yesterday: 56 °F

High & Low Weather Summary for the Past Weeks

 TemperatureHumidityPressure
High73 °F (May 6, 2:50 PM)100% (Apr 28, 4:50 AM)30.36 "Hg (Apr 28, 4:50 AM)
Low30 °F (May 1, 5:50 AM)25% (May 5, 3:50 PM)29.71 "Hg (Apr 25, 3:50 PM)
Average48 °F65%30.05 "Hg
* Reported Apr 21 7:50 PM — May 6 7:50 PM, London, Weather by CustomWeather, © 2016

Note: Actual official high and low records may vary slightly from our data, if they occured in-between our weather recording intervals... More about our weather records

Advertising

London Weather History for the Previous 24 Hours

Scroll right to see more
 ConditionsComfort  
Time TempWeatherWind HumidityBarometerVisibility
7:50 PM
Fri, May 6
68 °FSunny.9 mph43%29.77 "Hg10 mi
6:50 PM70 °FSunny.10 mph35%29.74 "Hg10 mi
4:50 PM73 °FSunny.6 mph36%29.77 "Hg10 mi
3:50 PM72 °FSunny.7 mph33%29.77 "Hg10 mi
2:50 PM73 °FSunny.8 mph33%29.77 "Hg10 mi
1:50 PM70 °FSunny.9 mph38%29.80 "Hg10 mi
12:50 PM70 °FSunny.9 mph40%29.80 "Hg10 mi
11:50 AM70 °FSunny.12 mph35%29.83 "Hg10 mi
10:50 AM66 °FSunny.8 mph46%29.86 "Hg10 mi
9:50 AM63 °FSunny.8 mph49%29.86 "Hg10 mi
8:50 AM57 °FSunny.6 mph63%29.89 "Hg10 mi
7:50 AM54 °FSunny.5 mph67%29.89 "Hg10 mi
6:50 AM46 °FSunny.2 mph82%29.92 "Hg10 mi
5:50 AM43 °FClear.3 mph81%29.92 "HgN/A
4:50 AM43 °FClear.2 mph87%29.92 "HgN/A
3:50 AM45 °FClear.5 mph76%29.92 "HgN/A
2:50 AM48 °FClear.6 mph76%29.95 "HgN/A
1:50 AM50 °FPassing clouds.5 mph71%29.98 "HgN/A
12:50 AM52 °FPassing clouds.6 mph58%29.98 "HgN/A
11:50 PM
Thu, May 5
54 °FPassing clouds.7 mph54%30.01 "HgN/A
10:50 PM55 °FClear.9 mph47%30.01 "Hg10 mi
9:50 PM57 °FClear.10 mph41%30.04 "Hg10 mi
8:50 PM59 °FSunny.12 mph34%30.04 "Hg10 mi
Weather by CustomWeather, © 2016

See weather overviewHow to use our weather pages